Home > Weather > Rustenburg > Past weeks

Flag for South Africa Past Weather in Rustenburg, South Africa — Yesterday and Last 2 Weeks

Now
59 °F

Passing clouds.


Feels Like: 55 °F
Forecast: 39 / 60 °F
Wind: 22 mph from Northeast

Location: Lanseria Civ / Mil

Current Time: Jul 25, 2016 at 8:01:58 PM

Latest Report: Jul 25, 2016 at 7:00 PM


Visibility: N/A

Pressure: 30.07 "Hg (26.19 "Hg at 1166m altitude)

Humidity: 68%

Dew Point: 48 °F

Location of RustenburgLocation

Past Weather in Rustenburg — Graph

°F

Rustenburg Temperature Yesterday

Maximum temperature yesterday: 68 °F (at 3:00 PM)
Minimum temperature yesterday: 37 °F (at 5:00 AM)
Average temperature yesterday: 54 °F

High & Low Weather Summary for the Past Weeks

 TemperatureHumidityPressure
High75 °F (Jul 22, 3:00 PM)93% (Jul 12, 7:00 AM)30.60 "Hg (Jul 12, 7:00 AM)
Low37 °F (Jul 14, 5:00 AM)10% (Jul 23, 3:00 PM)30.04 "Hg (Jul 25, 4:00 PM)
Average54 °F49%30.35 "Hg
* Reported Jul 10 6:00 PM — Jul 25 6:00 PM, Rustenburg, Weather by CustomWeather, © 2016

Note: Actual official high and low records may vary slightly from our data, if they occured in-between our weather recording intervals... More about our weather records

Advertising

Rustenburg Weather History for the Previous 24 Hours

Scroll right to see more
 ConditionsComfort  
Time TempWeatherWind HumidityBarometerVisibility
6:00 PM
Mon, Jul 25
61 °FPassing clouds.23 mph63%30.04 "HgN/A
5:00 PM61 °FPassing clouds.21 mph63%30.07 "HgN/A
4:00 PM63 °FPartly sunny.23 mph59%30.04 "HgN/A
3:00 PM63 °FPartly sunny.25 mph56%30.07 "HgN/A
2:00 PM61 °FPartly sunny.20 mph63%30.12 "HgN/A
1:00 PM59 °FPartly sunny.21 mph63%30.15 "HgN/A
12:00 PM57 °FPartly sunny.23 mph72%30.18 "HgN/A
11:00 AM57 °FPartly sunny.29 mph67%30.18 "HgN/A
10:00 AM55 °FPartly sunny.22 mph77%30.21 "Hg5 mi
9:00 AM54 °FPartly sunny.10 mph82%30.24 "Hg5 mi
8:00 AM52 °FPartly sunny.13 mph88%30.21 "Hg5 mi
7:00 AM50 °FPartly sunny.7 mph88%30.24 "Hg5 mi
6:00 AM48 °FScattered clouds.7 mph87%30.18 "Hg5 mi
5:00 AM46 °FPassing clouds.6 mph87%30.18 "HgN/A
4:00 AM48 °FCool.8 mph87%30.18 "HgN/A
3:00 AM50 °FCool.10 mph88%30.18 "HgN/A
2:00 AM52 °FCool.9 mph82%30.18 "HgN/A
1:00 AM54 °FCool.9 mph77%30.18 "HgN/A
12:00 AM54 °FCool.8 mph82%30.18 "HgN/A
11:00 PM
Sun, Jul 24
54 °FCool.15 mph77%30.15 "HgN/A
10:00 PM54 °FClear.14 mph77%30.18 "Hg10 mi
9:00 PM55 °FClear.16 mph72%30.18 "Hg10 mi
8:00 PM57 °FClear.24 mph67%30.12 "Hg10 mi
Weather by CustomWeather, © 2016

See weather overviewHow to use our weather pages